| time (UTC) | temp F | wind direction | speed MPH | gust MPH | rain 1hr in | rain 24hr in | rain mn in | humidity % | barometer mb |
| 20260905045053 | 61 | 0 | 2.0 | 4.0 | 0.00 | 0.04 | 0.00 | 80 | 1015.3 |
| 20260905044604 | 61 | 323 | 0.0 | 5.0 | 0.00 | 0.04 | 0.00 | 79 | 1015.2 |
| 20260905044056 | 61 | 0 | 0.0 | 7.0 | 0.00 | 0.04 | 0.00 | 79 | 1015.2 |
| 20260905043555 | 62 | 289 | 1.0 | 7.0 | 0.00 | 0.04 | 0.00 | 79 | 1015.2 |
| 20260905043111 | 62 | 310 | 1.0 | 7.0 | 0.00 | 0.04 | 0.00 | 78 | 1015.2 |
| 20260905042554 | 62 | 311 | 1.0 | 9.0 | 0.00 | 0.04 | 0.00 | 78 | 1015.1 |
| 20260905042057 | 62 | 300 | 2.0 | 9.0 | 0.00 | 0.04 | 0.00 | 78 | 1015.0 |
| 20260905041608 | 62 | 283 | 3.0 | 9.0 | 0.00 | 0.04 | 0.00 | 78 | 1015.0 |
| 20260905041054 | 62 | 333 | 1.0 | 10.0 | 0.00 | 0.04 | 0.00 | 78 | 1015.0 |
| 20260905040558 | 62 | 324 | 3.0 | 10.0 | 0.00 | 0.04 | 0.00 | 78 | 1015.0 |
| 20260905040106 | 62 | 290 | 4.0 | 10.0 | 0.00 | 0.04 | 0.00 | 77 | 1015.0 |
| 20260905035554 | 62 | 299 | 6.0 | 10.0 | 0.00 | 0.07 | 0.00 | 77 | 1014.9 |
| 20260905035057 | 62 | 309 | 2.0 | 8.0 | 0.00 | 0.07 | 0.00 | 77 | 1014.9 |
| 20260905034605 | 62 | 327 | 3.0 | 10.0 | 0.00 | 0.07 | 0.00 | 77 | 1014.7 |
| 20260905034054 | 62 | 0 | 5.0 | 10.0 | 0.00 | 0.07 | 0.00 | 77 | 1014.8 |
| 20260905033555 | 63 | 288 | 3.0 | 6.0 | 0.00 | 0.07 | 0.00 | 79 | 1014.7 |
| 20260905033115 | 62 | 329 | 2.0 | 7.0 | 0.00 | 0.07 | 0.00 | 79 | 1014.6 |
| 20260905032552 | 62 | 298 | 3.0 | 8.0 | 0.00 | 0.07 | 0.00 | 80 | 1014.6 |
| 20260905032057 | 62 | 347 | 3.0 | 8.0 | 0.00 | 0.07 | 0.00 | 81 | 1014.6 |
| 20260905031614 | 62 | 298 | 2.0 | 8.0 | 0.00 | 0.07 | 0.00 | 85 | 1014.6 |
| 20260905031055 | 62 | 275 | 1.0 | 3.0 | 0.00 | 0.07 | 0.00 | 86 | 1014.6 |
| 20260905030555 | 62 | 0 | 0.0 | 5.0 | 0.00 | 0.07 | 0.00 | 87 | 1014.5 |
| 20260905030109 | 62 | 289 | 0.0 | 5.0 | 0.00 | 0.07 | 0.00 | 87 | 1014.5 |
| 20260905025554 | 62 | 0 | 0.0 | 5.0 | 0.00 | 0.07 | 0.00 | 87 | 1014.5 |
| 20260905025055 | 62 | 0 | 0.0 | 5.0 | 0.00 | 0.07 | 0.00 | 87 | 1014.4 |
| 20260905024623 | 62 | 311 | 0.0 | 4.0 | 0.00 | 0.07 | 0.00 | 87 | 1014.5 |
| 20260905024054 | 63 | 0 | 0.0 | 4.0 | 0.00 | 0.07 | 0.00 | 87 | 1014.4 |
| 20260905023555 | 63 | 44 | 0.0 | 4.0 | 0.00 | 0.07 | 0.00 | 87 | 1014.5 |
| 20260905023124 | 63 | 0 | 0.0 | 4.0 | 0.00 | 0.07 | 0.00 | 87 | 1014.5 |
| 20260905022551 | 63 | 0 | 1.0 | 7.0 | 0.00 | 0.07 | 0.00 | 87 | 1014.4 |
| 20260905022055 | 63 | 298 | 1.0 | 7.0 | 0.00 | 0.07 | 0.00 | 87 | 1014.4 |
| 20260905021614 | 63 | 229 | 1.0 | 7.0 | 0.00 | 0.07 | 0.00 | 86 | 1014.4 |
| 20260905021055 | 63 | 250 | 0.0 | 7.0 | 0.00 | 0.07 | 0.00 | 86 | 1014.4 |
| 20260905020555 | 63 | 0 | 1.0 | 5.0 | 0.00 | 0.07 | 0.00 | 86 | 1014.4 |
| 20260905020111 | 63 | 0 | 0.0 | 6.0 | 0.00 | 0.07 | 0.00 | 86 | 1014.5 |
| 20260905015552 | 63 | 0 | 1.0 | 9.0 | 0.00 | 0.07 | 0.00 | 86 | 1014.4 |
| 20260905015055 | 63 | 221 | 1.0 | 9.0 | 0.00 | 0.07 | 0.00 | 86 | 1014.5 |
| 20260905014616 | 63 | 0 | 3.0 | 9.0 | 0.00 | 0.07 | 0.00 | 86 | 1014.5 |
| 20260905014054 | 64 | 0 | 1.0 | 8.0 | 0.00 | 0.07 | 0.00 | 86 | 1014.5 |
| 20260905013553 | 64 | 271 | 2.0 | 13.0 | 0.00 | 0.07 | 0.00 | 86 | 1014.6 |
| 20260905013104 | 64 | 279 | 0.0 | 13.0 | 0.00 | 0.07 | 0.00 | 85 | 1014.6 |
| 20260905012555 | 64 | 198 | 3.0 | 9.0 | 0.00 | 0.07 | 0.00 | 85 | 1014.4 |
| 20260905012056 | 64 | 284 | 2.0 | 9.0 | 0.00 | 0.07 | 0.00 | 85 | 1014.5 |
| 20260905011622 | 64 | 198 | 1.0 | 10.0 | 0.00 | 0.07 | 0.00 | 85 | 1014.4 |
| 20260905011055 | 64 | 251 | 3.0 | 10.0 | 0.00 | 0.07 | 0.00 | 84 | 1014.4 |
| 20260905010554 | 64 | 315 | 4.0 | 12.0 | 0.00 | 0.07 | 0.00 | 83 | 1014.4 |
| 20260905005554 | 65 | 259 | 3.0 | 11.0 | 0.00 | 0.07 | 0.00 | 82 | 1014.4 |
| 20260905005054 | 65 | 237 | 3.0 | 11.0 | 0.00 | 0.07 | 0.00 | 81 | 1014.4 |
| 20260905004606 | 66 | 258 | 2.0 | 10.0 | 0.00 | 0.07 | 0.00 | 81 | 1014.3 |
| 20260905004054 | 66 | 0 | 3.0 | 10.0 | 0.00 | 0.07 | 0.00 | 80 | 1014.5 |
| 20260905003552 | 66 | 289 | 2.0 | 12.0 | 0.00 | 0.07 | 0.00 | 81 | 1014.3 |
| 20260905003102 | 66 | 296 | 4.0 | 12.0 | 0.00 | 0.07 | 0.00 | 81 | 1014.4 |
| 20260905002558 | 66 | 267 | 3.0 | 12.0 | 0.00 | 0.07 | 0.00 | 81 | 1014.3 |
| 20260905002056 | 66 | 240 | 4.0 | 12.0 | 0.00 | 0.07 | 0.00 | 81 | 1014.3 |
| 20260905001606 | 66 | 259 | 3.0 | 10.0 | 0.00 | 0.07 | 0.00 | 81 | 1014.4 |
| 20260905001054 | 66 | 314 | 3.0 | 11.0 | 0.00 | 0.07 | 0.00 | 81 | 1014.4 |
| 20260905000554 | 66 | 246 | 3.0 | 11.0 | 0.00 | 0.07 | 0.00 | 81 | 1014.4 |
| 20260905000109 | 66 | 258 | 2.0 | 14.0 | 0.00 | 0.07 | 0.00 | 81 | 1014.4 |
| 20260904235557 | 66 | 0 | 5.0 | 14.0 | 0.00 | 0.07 | 0.00 | 81 | 1014.4 |
| 20260904235055 | 66 | 217 | 4.0 | 14.0 | 0.00 | 0.07 | 0.00 | 80 | 1014.5 |
| 20260904234607 | 67 | 253 | 5.0 | 14.0 | 0.00 | 0.07 | 0.00 | 79 | 1014.5 |
| 20260904234053 | 67 | 285 | 4.0 | 14.0 | 0.00 | 0.07 | 0.00 | 78 | 1014.5 |
| 20260904233556 | 67 | 269 | 4.0 | 14.0 | 0.00 | 0.07 | 0.00 | 78 | 1014.5 |
| 20260904233103 | 67 | 355 | 5.0 | 12.0 | 0.00 | 0.07 | 0.00 | 78 | 1014.6 |
| 20260904232551 | 67 | 256 | 4.0 | 11.0 | 0.00 | 0.07 | 0.00 | 78 | 1014.6 |
| 20260904232054 | 67 | 243 | 5.0 | 13.0 | 0.00 | 0.07 | 0.00 | 77 | 1014.6 |
| 20260904231613 | 67 | 194 | 6.0 | 13.0 | 0.00 | 0.07 | 0.00 | 77 | 1014.7 |
| 20260904231054 | 67 | 258 | 3.0 | 15.0 | 0.00 | 0.07 | 0.00 | 78 | 1014.7 |
| 20260904230557 | 67 | 234 | 4.0 | 15.0 | 0.00 | 0.07 | 0.00 | 78 | 1014.7 |
| 20260904230109 | 67 | 249 | 6.0 | 15.0 | 0.00 | 0.07 | 0.00 | 76 | 1014.7 |
| 20260904225556 | 67 | 202 | 4.0 | 16.0 | 0.00 | 0.07 | 0.00 | 76 | 1014.8 |
| 20260904225056 | 67 | 250 | 4.0 | 16.0 | 0.00 | 0.07 | 0.00 | 78 | 1014.9 |
| 20260904224614 | 67 | 284 | 4.0 | 14.0 | 0.00 | 0.07 | 0.00 | 77 | 1014.7 |
| 20260904224051 | 67 | 255 | 6.0 | 13.0 | 0.00 | 0.07 | 0.00 | 77 | 1015.0 |
| 20260904223555 | 68 | 244 | 2.0 | 11.0 | 0.00 | 0.07 | 0.00 | 76 | 1015.0 |
| 20260904223104 | 68 | 288 | 4.0 | 12.0 | 0.00 | 0.07 | 0.00 | 77 | 1015.0 |
| 20260904222554 | 67 | 188 | 4.0 | 12.0 | 0.00 | 0.07 | 0.00 | 78 | 1015.1 |
| 20260904222055 | 67 | 316 | 5.0 | 13.0 | 0.00 | 0.07 | 0.00 | 77 | 1015.0 |
| 20260904221607 | 68 | 233 | 4.0 | 13.0 | 0.00 | 0.07 | 0.00 | 77 | 1015.0 |
| 20260904221054 | 68 | 246 | 3.0 | 11.0 | 0.00 | 0.07 | 0.00 | 76 | 1015.0 |
| 20260904220554 | 68 | 245 | 3.0 | 14.0 | 0.00 | 0.07 | 0.00 | 77 | 1015.0 |
| 20260904220113 | 68 | 263 | 2.0 | 15.0 | 0.00 | 0.07 | 0.00 | 78 | 1015.0 |
| 20260904215554 | 67 | 313 | 4.0 | 15.0 | 0.00 | 0.07 | 0.00 | 77 | 1015.0 |
| 20260904215053 | 67 | 248 | 5.0 | 15.0 | 0.00 | 0.07 | 0.00 | 78 | 1015.0 |
| 20260904214609 | 67 | 232 | 5.0 | 14.0 | 0.00 | 0.07 | 0.00 | 77 | 1015.0 |
| 20260904214056 | 67 | 293 | 3.0 | 14.0 | 0.00 | 0.07 | 0.00 | 78 | 1015.1 |
| 20260904213554 | 67 | 0 | 4.0 | 12.0 | 0.00 | 0.07 | 0.00 | 79 | 1015.0 |
| 20260904213104 | 66 | 263 | 5.0 | 12.0 | 0.00 | 0.07 | 0.00 | 79 | 1015.1 |
| 20260904212555 | 66 | 284 | 5.0 | 12.0 | 0.00 | 0.07 | 0.00 | 79 | 1015.0 |
| 20260904212054 | 66 | 227 | 4.0 | 16.0 | 0.00 | 0.07 | 0.00 | 80 | 1015.1 |
| 20260904211604 | 66 | 244 | 5.0 | 16.0 | 0.00 | 0.07 | 0.00 | 79 | 1015.0 |
| 20260904211054 | 67 | 277 | 6.0 | 12.0 | 0.00 | 0.07 | 0.00 | 78 | 1015.1 |
| 20260904210554 | 67 | 178 | 2.0 | 11.0 | 0.00 | 0.07 | 0.00 | 80 | 1015.0 |
| 20260904210106 | 67 | 279 | 3.0 | 11.0 | 0.00 | 0.07 | 0.00 | 80 | 1015.1 |
| 20260904205554 | 67 | 227 | 4.0 | 11.0 | 0.00 | 0.07 | 0.00 | 80 | 1015.0 |
| 20260904205054 | 66 | 262 | 4.0 | 11.0 | 0.00 | 0.07 | 0.00 | 80 | 1015.0 |
| 20260904204604 | 67 | 286 | 4.0 | 11.0 | 0.00 | 0.07 | 0.00 | 80 | 1014.9 |
| 20260904204055 | 67 | 211 | 3.0 | 9.0 | 0.00 | 0.07 | 0.00 | 79 | 1015.0 |
| 20260904203554 | 67 | 240 | 3.0 | 9.0 | 0.00 | 0.07 | 0.00 | 79 | 1015.0 |
| 20260904203104 | 67 | 277 | 2.0 | 10.0 | 0.00 | 0.07 | 0.00 | 79 | 1015.0 |
| 20260904202554 | 67 | 225 | 3.0 | 12.0 | 0.00 | 0.07 | 0.00 | 79 | 1015.0 |
| 20260904202051 | 67 | 198 | 1.0 | 14.0 | 0.00 | 0.07 | 0.00 | 80 | 1014.9 |
| 20260904201631 | 67 | 238 | 4.0 | 14.0 | 0.00 | 0.07 | 0.00 | 80 | 1014.9 |
| 20260904201054 | 67 | 273 | 2.0 | 12.0 | 0.00 | 0.07 | 0.00 | 79 | 1014.9 |
| 20260904200553 | 67 | 275 | 3.0 | 12.0 | 0.00 | 0.07 | 0.00 | 78 | 1014.9 |
| 20260904200122 | 67 | 209 | 3.0 | 9.0 | 0.00 | 0.07 | 0.00 | 79 | 1014.9 |
| 20260904195555 | 67 | 205 | 2.0 | 9.0 | 0.00 | 0.07 | 0.00 | 77 | 1014.8 |
| 20260904195054 | 67 | 231 | 2.0 | 8.0 | 0.00 | 0.07 | 0.00 | 78 | 1014.8 |
| 20260904194610 | 67 | 348 | 3.0 | 8.0 | 0.00 | 0.07 | 0.00 | 77 | 1014.9 |
| 20260904194055 | 67 | 215 | 1.0 | 8.0 | 0.00 | 0.07 | 0.00 | 78 | 1014.9 |
| 20260904193555 | 67 | 266 | 1.0 | 8.0 | 0.00 | 0.07 | 0.00 | 76 | 1015.0 |
| 20260904193111 | 67 | 0 | 2.0 | 8.0 | 0.00 | 0.07 | 0.00 | 76 | 1015.0 |
| 20260904192554 | 67 | 250 | 2.0 | 8.0 | 0.00 | 0.07 | 0.00 | 77 | 1015.1 |
| 20260904192054 | 66 | 257 | 1.0 | 7.0 | 0.00 | 0.07 | 0.00 | 78 | 1015.1 |
| 20260904191606 | 66 | 238 | 2.0 | 7.0 | 0.00 | 0.07 | 0.00 | 78 | 1015.1 |
| 20260904191054 | 66 | 256 | 1.0 | 6.0 | 0.00 | 0.07 | 0.00 | 79 | 1015.1 |
| 20260904190556 | 66 | 309 | 1.0 | 8.0 | 0.00 | 0.07 | 0.00 | 80 | 1015.1 |
| 20260904185557 | 65 | 254 | 3.0 | 8.0 | 0.00 | 0.07 | 0.00 | 81 | 1015.2 |
| 20260904185056 | 65 | 302 | 3.0 | 8.0 | 0.00 | 0.07 | 0.00 | 80 | 1015.3 |
| 20260904184608 | 65 | 265 | 2.0 | 6.0 | 0.00 | 0.07 | 0.00 | 81 | 1015.2 |
| 20260904184054 | 65 | 248 | 1.0 | 8.0 | 0.00 | 0.07 | 0.00 | 82 | 1015.2 |
| 20260904183559 | 65 | 257 | 2.0 | 8.0 | 0.00 | 0.07 | 0.00 | 82 | 1015.3 |
| 20260904183102 | 65 | 248 | 2.0 | 9.0 | 0.00 | 0.07 | 0.00 | 83 | 1015.3 |
| 20260904182552 | 65 | 259 | 2.0 | 9.0 | 0.00 | 0.07 | 0.00 | 83 | 1015.3 |
| 20260904182054 | 65 | 247 | 1.0 | 8.0 | 0.00 | 0.07 | 0.00 | 83 | 1015.3 |
| 20260904181606 | 64 | 360 | 1.0 | 8.0 | 0.00 | 0.07 | 0.00 | 84 | 1015.2 |
| 20260904181055 | 64 | 279 | 2.0 | 8.0 | 0.00 | 0.07 | 0.00 | 83 | 1015.2 |
| 20260904180555 | 64 | 269 | 1.0 | 5.0 | 0.00 | 0.07 | 0.00 | 83 | 1015.2 |
| 20260904180105 | 64 | 268 | 1.0 | 5.0 | 0.00 | 0.07 | 0.00 | 83 | 1015.1 |
| 20260904175555 | 64 | 221 | 1.0 | 5.0 | 0.00 | 0.07 | 0.00 | 84 | 1015.2 |
| 20260904175051 | 63 | 252 | 1.0 | 5.0 | 0.00 | 0.07 | 0.00 | 85 | 1015.3 |
| 20260904174603 | 63 | 0 | 1.0 | 4.0 | 0.00 | 0.07 | 0.00 | 85 | 1015.3 |
| 20260904174055 | 63 | 185 | 1.0 | 5.0 | 0.00 | 0.07 | 0.00 | 87 | 1015.2 |
| 20260904173555 | 63 | 210 | 1.0 | 5.0 | 0.00 | 0.07 | 0.00 | 87 | 1015.3 |
| 20260904173128 | 63 | 286 | 1.0 | 5.0 | 0.00 | 0.07 | 0.00 | 88 | 1015.2 |
| 20260904172556 | 62 | 267 | 1.0 | 5.0 | 0.00 | 0.07 | 0.00 | 89 | 1015.2 |
| 20260904172055 | 62 | 217 | 2.0 | 5.0 | 0.00 | 0.07 | 0.00 | 89 | 1015.2 |
| 20260904171611 | 62 | 266 | 1.0 | 4.0 | 0.00 | 0.07 | 0.00 | 91 | 1015.1 |
| 20260904171054 | 61 | 252 | 1.0 | 5.0 | 0.00 | 0.07 | 0.00 | 92 | 1015.1 |
| 20260904170556 | 61 | 230 | 1.0 | 5.0 | 0.00 | 0.07 | 0.00 | 93 | 1015.0 |
| 20260904170110 | 61 | 224 | 1.0 | 4.0 | 0.00 | 0.07 | 0.00 | 94 | 1014.9 |
| 20260904165556 | 61 | 246 | 1.0 | 6.0 | 0.00 | 0.07 | 0.00 | 94 | 1015.0 |
| 20260904165052 | 61 | 236 | 2.0 | 6.0 | 0.00 | 0.07 | 0.00 | 95 | 1014.9 |
| 20260904164627 | 61 | 231 | 1.0 | 6.0 | 0.00 | 0.07 | 0.00 | 95 | 1015.0 |
| 20260904164055 | 60 | 207 | 1.0 | 4.0 | 0.00 | 0.07 | 0.00 | 96 | 1014.7 |
| 20260904163555 | 60 | 196 | 0.0 | 3.0 | 0.00 | 0.07 | 0.00 | 96 | 1014.7 |
| 20260904163108 | 60 | 207 | 0.0 | 3.0 | 0.00 | 0.07 | 0.00 | 97 | 1014.6 |
| 20260904162555 | 59 | 0 | 0.0 | 5.0 | 0.00 | 0.07 | 0.00 | 96 | 1014.5 |
| 20260904162053 | 60 | 243 | 1.0 | 5.0 | 0.00 | 0.07 | 0.00 | 97 | 1014.5 |
| 20260904161605 | 60 | 229 | 0.0 | 5.0 | 0.00 | 0.07 | 0.00 | 97 | 1014.4 |
| 20260904161051 | 59 | 0 | 1.0 | 4.0 | 0.00 | 0.07 | 0.00 | 97 | 1014.4 |
| 20260904160556 | 59 | 0 | 0.0 | 3.0 | 0.00 | 0.07 | 0.00 | 97 | 1014.5 |
| 20260904160109 | 59 | 267 | 1.0 | 3.0 | 0.00 | 0.07 | 0.00 | 97 | 1014.4 |
| 20260904155556 | 59 | 0 | 2.0 | 3.0 | 0.00 | 0.07 | 0.00 | 97 | 1014.4 |
| 20260904155055 | 59 | 0 | 0.0 | 2.0 | 0.00 | 0.07 | 0.00 | 97 | 1014.4 |
| 20260904154603 | 59 | 0 | 0.0 | 2.0 | 0.00 | 0.07 | 0.00 | 97 | 1014.4 |
| 20260904154058 | 59 | 211 | 0.0 | 2.0 | 0.00 | 0.07 | 0.00 | 98 | 1014.4 |
| 20260904153555 | 59 | 219 | 0.0 | 2.0 | 0.00 | 0.07 | 0.00 | 97 | 1014.5 |
| 20260904153108 | 58 | 219 | 0.0 | 2.0 | 0.00 | 0.07 | 0.00 | 97 | 1014.4 |
| 20260904152554 | 58 | 0 | 0.0 | 0.0 | 0.00 | 0.07 | 0.00 | 97 | 1014.4 |
| 20260904152052 | 58 | 0 | 0.0 | 0.0 | 0.00 | 0.07 | 0.00 | 97 | 1014.3 |
| 20260904151615 | 58 | 0 | 0.0 | 0.0 | 0.00 | 0.07 | 0.00 | 97 | 1014.3 |
| 20260904151054 | 58 | 0 | 0.0 | 1.0 | 0.00 | 0.07 | 0.00 | 97 | 1014.3 |
| 20260904150555 | 58 | 0 | 0.0 | 1.0 | 0.00 | 0.07 | 0.00 | 97 | 1014.2 |
| 20260904150125 | 58 | 0 | 0.0 | 1.0 | 0.00 | 0.07 | 0.00 | 98 | 1014.1 |
| 20260904145555 | 58 | 0 | 0.0 | 3.0 | 0.00 | 0.07 | 0.00 | 98 | 1014.1 |
| 20260904145056 | 58 | 0 | 0.0 | 3.0 | 0.00 | 0.07 | 0.00 | 98 | 1014.1 |
| 20260904144604 | 57 | 236 | 0.0 | 3.0 | 0.00 | 0.07 | 0.00 | 98 | 1014.0 |
| 20260904144056 | 57 | 0 | 0.0 | 0.0 | 0.00 | 0.07 | 0.00 | 97 | 1014.0 |
| 20260904143555 | 57 | 0 | 0.0 | 0.0 | 0.00 | 0.07 | 0.00 | 97 | 1013.9 |
| 20260904143117 | 57 | 0 | 0.0 | 0.0 | 0.00 | 0.07 | 0.00 | 98 | 1013.8 |
| 20260904142555 | 57 | 0 | 0.0 | 0.0 | 0.00 | 0.07 | 0.00 | 97 | 1013.8 |
| 20260904142055 | 56 | 0 | 0.0 | 0.0 | 0.00 | 0.07 | 0.00 | 97 | 1013.9 |
| 20260904141616 | 56 | 0 | 0.0 | 0.0 | 0.00 | 0.07 | 0.00 | 98 | 1013.7 |
| 20260904141055 | 56 | 0 | 0.0 | 0.0 | 0.00 | 0.07 | 0.00 | 97 | 1013.7 |
| 20260904140554 | 56 | 0 | 0.0 | 0.0 | 0.00 | 0.07 | 0.00 | 97 | 1013.7 |
| 20260904140107 | 56 | 0 | 0.0 | 0.0 | 0.00 | 0.07 | 0.00 | 97 | 1013.6 |
| 20260904135556 | 56 | 0 | 0.0 | 0.0 | 0.00 | 0.07 | 0.00 | 97 | 1013.5 |
| 20260904135056 | 55 | 0 | 0.0 | 0.0 | 0.00 | 0.07 | 0.00 | 97 | 1013.5 |
| 20260904134624 | 55 | 0 | 0.0 | 0.0 | 0.00 | 0.07 | 0.00 | 97 | 1013.4 |
| 20260904134055 | 55 | 0 | 0.0 | 0.0 | 0.00 | 0.07 | 0.00 | 97 | 1013.4 |
| 20260904133555 | 55 | 0 | 0.0 | 0.0 | 0.00 | 0.07 | 0.00 | 97 | 1013.3 |
| 20260904133113 | 55 | 0 | 0.0 | 0.0 | 0.00 | 0.07 | 0.00 | 97 | 1013.4 |
| 20260904132556 | 55 | 0 | 0.0 | 0.0 | 0.00 | 0.07 | 0.00 | 97 | 1013.4 |
| 20260904132056 | 55 | 0 | 0.0 | 0.0 | 0.00 | 0.07 | 0.00 | 96 | 1013.3 |
| 20260904131602 | 55 | 0 | 0.0 | 0.0 | 0.00 | 0.07 | 0.00 | 97 | 1013.4 |
| 20260904131057 | 55 | 0 | 0.0 | 0.0 | 0.00 | 0.07 | 0.00 | 97 | 1013.2 |
| 20260904130554 | 55 | 0 | 0.0 | 0.0 | 0.00 | 0.07 | 0.00 | 97 | 1013.3 |
| 20260904130107 | 55 | 0 | 0.0 | 0.0 | 0.00 | 0.07 | 0.00 | 97 | 1013.3 |
| 20260904125635 | 55 | 0 | 0.0 | 0.0 | 0.00 | 0.07 | 0.00 | 97 | 1013.3 |
| 20260904125052 | 56 | 0 | 0.0 | 0.0 | 0.00 | 0.07 | 0.00 | 97 | 1013.2 |
| 20260904124608 | 56 | 0 | 0.0 | 0.0 | 0.00 | 0.07 | 0.00 | 97 | 1013.2 |
| 20260904124055 | 55 | 0 | 0.0 | 0.0 | 0.00 | 0.07 | 0.00 | 97 | 1013.2 |
| 20260904123554 | 55 | 0 | 0.0 | 0.0 | 0.00 | 0.07 | 0.00 | 97 | 1013.2 |
| 20260904123108 | 55 | 0 | 0.0 | 0.0 | 0.00 | 0.07 | 0.00 | 96 | 1013.1 |
| 20260904122552 | 56 | 0 | 0.0 | 0.0 | 0.00 | 0.07 | 0.00 | 96 | 1013.2 |
| 20260904122055 | 56 | 0 | 0.0 | 0.0 | 0.00 | 0.07 | 0.00 | 96 | 1013.2 |
| 20260904121607 | 56 | 0 | 0.0 | 0.0 | 0.00 | 0.07 | 0.00 | 97 | 1013.1 |
| 20260904121055 | 56 | 0 | 0.0 | 0.0 | 0.00 | 0.07 | 0.00 | 96 | 1013.1 |
| 20260904120555 | 56 | 0 | 0.0 | 0.0 | 0.00 | 0.07 | 0.00 | 96 | 1013.1 |
| 20260904120109 | 56 | 0 | 0.0 | 0.0 | 0.00 | 0.07 | 0.00 | 96 | 1013.1 |
| 20260904115555 | 56 | 0 | 0.0 | 0.0 | 0.00 | 0.07 | 0.00 | 96 | 1013.0 |
| 20260904115055 | 56 | 0 | 0.0 | 0.0 | 0.00 | 0.07 | 0.00 | 96 | 1013.0 |
| 20260904114605 | 56 | 0 | 0.0 | 0.0 | 0.00 | 0.07 | 0.00 | 96 | 1013.0 |
| 20260904114055 | 56 | 0 | 0.0 | 0.0 | 0.00 | 0.07 | 0.00 | 96 | 1013.0 |
| 20260904113557 | 57 | 0 | 0.0 | 0.0 | 0.00 | 0.07 | 0.00 | 96 | 1013.0 |
| 20260904113106 | 57 | 0 | 0.0 | 0.0 | 0.00 | 0.07 | 0.00 | 96 | 1013.1 |
| 20260904112554 | 57 | 0 | 0.0 | 0.0 | 0.00 | 0.07 | 0.00 | 96 | 1013.1 |
| 20260904112054 | 57 | 0 | 0.0 | 0.0 | 0.00 | 0.07 | 0.00 | 96 | 1013.2 |
| 20260904111607 | 57 | 0 | 0.0 | 0.0 | 0.00 | 0.07 | 0.00 | 96 | 1013.1 |
| 20260904111055 | 57 | 0 | 0.0 | 0.0 | 0.00 | 0.07 | 0.00 | 96 | 1013.0 |
| 20260904110555 | 57 | 0 | 0.0 | 0.0 | 0.00 | 0.07 | 0.00 | 96 | 1013.0 |
| 20260904110108 | 58 | 0 | 0.0 | 0.0 | 0.00 | 0.07 | 0.00 | 96 | 1013.0 |
| 20260904105558 | 58 | 0 | 0.0 | 0.0 | 0.00 | 0.07 | 0.00 | 96 | 1013.0 |
| 20260904105054 | 58 | 0 | 0.0 | 0.0 | 0.00 | 0.07 | 0.00 | 96 | 1013.0 |
| 20260904104605 | 58 | 0 | 0.0 | 0.0 | 0.00 | 0.07 | 0.00 | 96 | 1013.0 |
| 20260904104056 | 58 | 0 | 0.0 | 2.0 | 0.00 | 0.07 | 0.00 | 96 | 1013.0 |
| 20260904103554 | 58 | 0 | 0.0 | 2.0 | 0.00 | 0.07 | 0.00 | 96 | 1013.0 |
| 20260904103113 | 58 | 0 | 0.0 | 2.0 | 0.00 | 0.07 | 0.00 | 97 | 1013.0 |
| 20260904102552 | 58 | 0 | 0.0 | 2.0 | 0.00 | 0.07 | 0.00 | 96 | 1013.0 |
| 20260904102055 | 58 | 0 | 0.0 | 2.0 | 0.00 | 0.07 | 0.00 | 97 | 1012.9 |
| 20260904101605 | 58 | 0 | 0.0 | 2.0 | 0.00 | 0.07 | 0.00 | 96 | 1012.8 |
| 20260904101055 | 58 | 0 | 0.0 | 0.0 | 0.00 | 0.07 | 0.00 | 96 | 1012.8 |
| 20260904100555 | 58 | 0 | 0.0 | 0.0 | 0.00 | 0.07 | 0.00 | 96 | 1012.9 |
| 20260904100106 | 59 | 0 | 0.0 | 0.0 | 0.00 | 0.07 | 0.00 | 96 | 1012.9 |
| 20260904095555 | 59 | 0 | 0.0 | 1.0 | 0.00 | 0.07 | 0.00 | 96 | 1012.8 |
| 20260904095054 | 59 | 0 | 0.0 | 1.0 | 0.00 | 0.07 | 0.00 | 96 | 1012.9 |
| 20260904094606 | 59 | 0 | 0.0 | 0.0 | 0.00 | 0.07 | 0.00 | 96 | 1012.8 |
| 20260904094054 | 59 | 0 | 0.0 | 0.0 | 0.00 | 0.07 | 0.00 | 96 | 1012.9 |
| 20260904093555 | 59 | 0 | 0.0 | 0.0 | 0.00 | 0.07 | 0.00 | 96 | 1012.8 |
| 20260904093114 | 59 | 0 | 0.0 | 0.0 | 0.00 | 0.07 | 0.00 | 96 | 1012.8 |
| 20260904092554 | 59 | 0 | 0.0 | 2.0 | 0.00 | 0.07 | 0.00 | 96 | 1012.8 |
| 20260904092051 | 59 | 0 | 0.0 | 2.0 | 0.00 | 0.07 | 0.00 | 96 | 1012.8 |
| 20260904091605 | 59 | 266 | 0.0 | 1.0 | 0.00 | 0.07 | 0.00 | 96 | 1012.8 |
| 20260904091055 | 59 | 266 | 0.0 | 4.0 | 0.00 | 0.07 | 0.00 | 96 | 1012.8 |
| 20260904090555 | 59 | 0 | 0.0 | 4.0 | 0.00 | 0.07 | 0.00 | 96 | 1012.8 |
| 20260904090103 | 59 | 0 | 0.0 | 2.0 | 0.00 | 0.07 | 0.00 | 96 | 1012.8 |
| 20260904085555 | 59 | 0 | 0.0 | 2.0 | 0.00 | 0.07 | 0.00 | 96 | 1012.7 |
| 20260904085055 | 59 | 0 | 0.0 | 2.0 | 0.00 | 0.07 | 0.00 | 96 | 1012.7 |
| 20260904084603 | 60 | 0 | 0.0 | 2.0 | 0.00 | 0.07 | 0.00 | 96 | 1012.7 |
| 20260904084051 | 60 | 0 | 0.0 | 2.0 | 0.00 | 0.07 | 0.00 | 96 | 1012.8 |
| 20260904083553 | 60 | 0 | 0.0 | 0.0 | 0.00 | 0.07 | 0.00 | 96 | 1012.8 |
| 20260904083105 | 60 | 0 | 0.0 | 3.0 | 0.00 | 0.07 | 0.00 | 96 | 1012.6 |
| 20260904082555 | 60 | 0 | 0.0 | 4.0 | 0.00 | 0.07 | 0.00 | 96 | 1012.8 |
| 20260904082058 | 60 | 238 | 0.0 | 4.0 | 0.00 | 0.07 | 0.00 | 96 | 1012.6 |
| 20260904081610 | 60 | 252 | 0.0 | 3.0 | 0.00 | 0.07 | 0.00 | 96 | 1012.6 |
| 20260904081055 | 60 | 0 | 0.0 | 3.0 | 0.00 | 0.07 | 0.00 | 96 | 1012.7 |
| 20260904080555 | 60 | 231 | 0.0 | 3.0 | 0.00 | 0.07 | 0.00 | 96 | 1012.7 |
| 20260904080108 | 60 | 0 | 1.0 | 3.0 | 0.00 | 0.07 | 0.00 | 96 | 1012.6 |
| 20260904075555 | 60 | 0 | 0.0 | 4.0 | 0.00 | 0.07 | 0.00 | 96 | 1012.7 |
| 20260904075054 | 60 | 0 | 0.0 | 4.0 | 0.00 | 0.07 | 0.00 | 96 | 1012.6 |
| 20260904074603 | 61 | 229 | 0.0 | 4.0 | 0.00 | 0.07 | 0.00 | 96 | 1012.8 |
| 20260904074052 | 61 | 212 | 1.0 | 4.0 | 0.00 | 0.07 | 0.00 | 96 | 1012.8 |
| 20260904073555 | 61 | 0 | 0.0 | 4.0 | 0.01 | 0.07 | 0.00 | 96 | 1012.7 |
| 20260904073106 | 61 | 0 | 1.0 | 5.0 | 0.01 | 0.07 | 0.00 | 96 | 1012.7 |
| 20260904072556 | 61 | 225 | 1.0 | 5.0 | 0.01 | 0.07 | 0.00 | 96 | 1012.6 |
| 20260904072055 | 61 | 208 | 1.0 | 5.0 | 0.01 | 0.07 | 0.00 | 96 | 1012.5 |
| 20260904071604 | 61 | 254 | 1.0 | 5.0 | 0.01 | 0.07 | 0.00 | 96 | 1012.5 |
| 20260904071055 | 61 | 232 | 2.0 | 5.0 | 0.01 | 0.07 | 0.00 | 96 | 1012.6 |
| 20260904070555 | 61 | 232 | 1.0 | 4.0 | 0.01 | 0.07 | 0.00 | 96 | 1012.5 |
| 20260904070114 | 61 | 210 | 0.0 | 4.0 | 0.01 | 0.07 | 0.00 | 96 | 1012.5 |
| 20260904065554 | 61 | 240 | 0.0 | 2.0 | 0.01 | 0.07 | 0.07 | 96 | 1012.5 |
| 20260904065054 | 61 | 223 | 0.0 | 3.0 | 0.01 | 0.07 | 0.07 | 96 | 1012.5 |
| 20260904064605 | 61 | 0 | 0.0 | 3.0 | 0.01 | 0.07 | 0.07 | 96 | 1012.5 |
| 20260904064052 | 61 | 0 | 0.0 | 0.0 | 0.01 | 0.07 | 0.07 | 96 | 1012.5 |
| 20260904063555 | 61 | 0 | 0.0 | 0.0 | 0.00 | 0.06 | 0.06 | 96 | 1012.5 |
| 20260904063121 | 61 | 0 | 0.0 | 0.0 | 0.00 | 0.06 | 0.06 | 96 | 1012.5 |
| 20260904062558 | 61 | 0 | 0.0 | 0.0 | 0.00 | 0.06 | 0.06 | 96 | 1012.5 |
| 20260904062055 | 61 | 0 | 0.0 | 0.0 | 0.00 | 0.06 | 0.06 | 96 | 1012.5 |
| 20260904061603 | 61 | 0 | 0.0 | 0.0 | 0.00 | 0.06 | 0.06 | 96 | 1012.4 |
| 20260904061058 | 61 | 0 | 0.0 | 0.0 | 0.00 | 0.06 | 0.06 | 96 | 1012.6 |
| 20260904060555 | 61 | 0 | 0.0 | 0.0 | 0.00 | 0.06 | 0.06 | 96 | 1012.7 |
| 20260904060107 | 61 | 0 | 0.0 | 1.0 | 0.00 | 0.06 | 0.06 | 96 | 1012.6 |
| 20260904055554 | 61 | 0 | 0.0 | 1.0 | 0.00 | 0.06 | 0.06 | 96 | 1012.6 |
| 20260904055055 | 60 | 0 | 0.0 | 0.0 | 0.00 | 0.06 | 0.06 | 96 | 1012.7 |
| 20260904054612 | 60 | 0 | 0.0 | 0.0 | 0.00 | 0.06 | 0.06 | 96 | 1012.7 |
| 20260904054054 | 60 | 0 | 0.0 | 0.0 | 0.00 | 0.06 | 0.06 | 96 | 1012.7 |
| 20260904053554 | 60 | 0 | 0.0 | 0.0 | 0.00 | 0.06 | 0.06 | 96 | 1012.8 |
| 20260904053103 | 60 | 0 | 0.0 | 0.0 | 0.01 | 0.06 | 0.06 | 96 | 1012.9 |
| 20260904052556 | 60 | 0 | 0.0 | 0.0 | 0.01 | 0.06 | 0.06 | 96 | 1012.8 |
| 20260904052056 | 60 | 0 | 0.0 | 1.0 | 0.02 | 0.06 | 0.06 | 95 | 1012.8 |
| 20260904051608 | 60 | 0 | 0.0 | 1.0 | 0.02 | 0.06 | 0.06 | 95 | 1013.0 |
| 20260904051055 | 61 | 0 | 0.0 | 2.0 | 0.03 | 0.06 | 0.06 | 95 | 1013.0 |
| 20260904050555 | 61 | 0 | 0.0 | 4.0 | 0.03 | 0.06 | 0.06 | 95 | 1013.0 |
| 20260904050106 | 61 | 0 | 1.0 | 4.0 | 0.03 | 0.06 | 0.06 | 95 | 1013.1 |
| 20260904045556 | 61 | 9 | 1.0 | 4.0 | 0.03 | 0.06 | 0.06 | 95 | 1013.0 |